TimeCDT,TemperatureF,Dew PointF,Humidity,Sea Level PressureIn,VisibilityMPH,Wind Direction,Wind SpeedMPH,Gust SpeedMPH,PrecipitationIn,Events,Conditions,WindDirDegrees,DateUTC
12:53 AM,44.1,37.0,76,30.08,10.0,Calm,Calm,-,N/A,,Clear,0,2011-10-22 05:53:00
1:53 AM,43.0,36.0,76,30.06,10.0,NW,3.5,-,N/A,,Clear,310,2011-10-22 06:53:00
2:53 AM,43.0,37.0,80,30.06,10.0,NNW,3.5,-,N/A,,Clear,340,2011-10-22 07:53:00
3:53 AM,39.9,36.0,86,30.06,10.0,Calm,Calm,-,N/A,,Clear,0,2011-10-22 08:53:00
4:53 AM,42.1,36.0,79,30.05,10.0,West,4.6,-,N/A,,Clear,280,2011-10-22 09:53:00
5:53 AM,43.0,37.0,80,30.05,10.0,West,4.6,-,N/A,,Clear,280,2011-10-22 10:53:00
6:53 AM,43.0,37.9,82,30.07,10.0,Calm,Calm,-,N/A,,Clear,0,2011-10-22 11:53:00
7:53 AM,43.0,39.0,86,30.07,10.0,SSW,3.5,-,N/A,,Clear,210,2011-10-22 12:53:00
8:53 AM,45.0,39.0,80,30.07,10.0,Calm,Calm,-,N/A,,Clear,0,2011-10-22 13:53:00
9:53 AM,51.1,41.0,68,30.08,10.0,NNW,5.8,-,N/A,,Scattered Clouds,340,2011-10-22 14:53:00
10:53 AM,54.0,42.1,64,30.09,10.0,North,3.5,-,N/A,,Overcast,360,2011-10-22 15:53:00
11:53 AM,55.9,43.0,62,30.07,10.0,SE,9.2,-,N/A,,Overcast,130,2011-10-22 16:53:00
12:53 PM,61.0,43.0,52,30.06,10.0,East,8.1,-,N/A,,Mostly Cloudy,80,2011-10-22 17:53:00
1:53 PM,63.0,41.0,45,30.05,10.0,SE,3.5,-,N/A,,Overcast,140,2011-10-22 18:53:00
2:53 PM,66.9,42.1,40,30.02,10.0,NNW,5.8,-,N/A,,Partly Cloudy,340,2011-10-22 19:53:00
3:53 PM,70.0,41.0,35,30.00,10.0,Variable,3.5,-,N/A,,Clear,0,2011-10-22 20:53:00
4:53 PM,71.1,39.9,32,30.00,10.0,SW,4.6,-,N/A,,Clear,220,2011-10-22 21:53:00
5:53 PM,71.1,39.0,31,30.00,10.0,Calm,Calm,-,N/A,,Clear,0,2011-10-22 22:53:00
6:53 PM,59.0,42.1,53,30.03,10.0,NNW,5.8,-,N/A,,Clear,340,2011-10-22 23:53:00
7:53 PM,55.9,42.1,60,30.05,10.0,NNE,10.4,-,N/A,,Clear,30,2011-10-23 00:53:00
8:53 PM,52.0,42.1,69,30.05,10.0,Calm,Calm,-,N/A,,Clear,0,2011-10-23 01:53:00
9:53 PM,48.9,41.0,74,30.06,10.0,Calm,Calm,-,N/A,,Clear,0,2011-10-23 02:53:00
10:53 PM,46.0,39.9,79,30.07,10.0,West,3.5,-,N/A,,Clear,270,2011-10-23 03:53:00
11:53 PM,43.0,39.0,86,30.06,10.0,Calm,Calm,-,N/A,,Clear,0,2011-10-23 04:53:00